YAOGAN-43 02D

Last updated on Fri Oct 04 2024 00:02:03 GMT+0000 (Coordinated Universal Time)

1 60948U 24156D 24276.84701842 .00021943 00000+0 91096-3 0 9996 2 60948 34.9917 152.2062 0002738 236.8416 123.2036 15.22951812 4502
UTC large
Height (km)
Speed (km/s)
/
Latitude / Longitude
Inclination (degrees)
Orbital Period (minutes)
Azimuth
Elevation
Range (km)
Doppler Factor

Next 0 passes for location: London (51.5072 / 0.1276)

Sorry there are no passes over London.